Regional Weather Roundup
Issued by NWS

Home | Current Version | Previous Version | Graphics & Text | Print | Product List | Glossary On
Versions: 1 2 3 4 5 6 7 8 9 10 11 12 13 14 15 16 17 18 19 20 21 22 23 24 25 26 27 28 29 30 31 32 33 34 35 36 37 38 39 40 41 42 43 44 45 46 47 48 49 50
000
ASUS45 KPSR 071510
RWRAZ

ARIZONA HOURLY REGIONAL WEATHER ROUNDUP
NATIONAL WEATHER SERVICE PHOENIX AZ
800 AM MST SUN FEB 07 2016

NOTE: FAIR INDICATES FEW OR NO CLOUDS BELOW 12,000 FEET WITH NO
SIGNIFICANT WEATHER AND/OR OBSTRUCTIONS TO VISIBILITY.

AZZ001>003-036-071600-
NORTHWEST ARIZONA

CITY           SKY/WX    TMP DP  RH WIND       PRES   REMARKS
BULLHEAD CITY  CLEAR     54  27  35 N28       30.28R
KINGMAN        CLEAR     35  22  58 NE5       30.33R WCI  31
$$

AZZ004>008-015-016-018-071600-
NORTH CENTRAL ARIZONA

CITY           SKY/WX    TMP DP  RH WIND       PRES   REMARKS
GRAND CANYON   PTCLDY    18  11  74 CALM      30.42R
WILLIAMS       CLEAR     23  10  58 SE9       30.43S WCI  13
PRESCOTT       CLEAR     27  18  69 CALM      30.36R
FLAGSTAFF      PTCLDY    13   8  81 N3        30.41R
PAYSON         CLEAR     41  10  28 CALM      30.32R
PAGE           PTCLDY    27  22  81 CALM      30.48R
$$

AZZ009>014-017-071600-
NORTHEAST ARIZONA

CITY           SKY/WX    TMP DP  RH WIND       PRES   REMARKS
WINSLOW        MOCLDY    20  16  84 SW5       30.46R WCI  13
SAINT JOHNS    MOCLDY    21  15  78 NW3       30.42R
WINDOW ROCK    CLEAR     15   0  51 SW3       30.42R
SHOW LOW       PTCLDY    21  14  73 CALM      30.42R
$$

AZZ023-071600-
GREATER PHOENIX AREA

CITY           SKY/WX    TMP DP  RH WIND       PRES   REMARKS
PHOENIX        PTCLDY    53  20  27 E3        30.18R
BUCKEYE        CLEAR     45  23  42 N10       30.22R
GLENDALE       PTCLDY    45  27  49 N3        30.19S
LUKE AFB       CLEAR     43  26  50 NW5       30.19R
DEER VALLEY    CLEAR     49  19  30 N3        30.19R
SCOTTSDALE     CLEAR     45  26  47 CALM      30.20R
MESA-FALCON    CLEAR    N/A N/A N/A N13       30.19R
MESA-GATEWAY   PTCLDY    37  27  65 E6        30.20R WCI  33
CHANDLER       CLEAR     39  27  60 CALM      30.20R
$$

AZZ027-028-071600-
SOUTHWEST MARICOPA COUNTY AND PINAL COUNTY

CITY           SKY/WX    TMP DP  RH WIND       PRES   REMARKS
CASA GRANDE    CLEAR     39  19  45 CALM      30.19S
GILA BEND      FAIR      42  24  48 E3        30.18R
$$

AZZ503-504-507>509-071600-
SOUTHEAST ARIZONA

CITY           SKY/WX    TMP DP  RH WIND       PRES   REMARKS
TUCSON         CLEAR     38  17  42 CALM      30.23R
DAVIS-MONTHAN  PTCLDY    51   8  17 E10       30.20R
RYAN FIELD     CLEAR    N/A N/A N/A SE9       30.22R
NOGALES        PTCLDY    36  11  35 CALM      30.22R
SIERRA VISTA   PTCLDY    38  16  40 S6        30.27R WCI  34
DOUGLAS        MOCLDY    31  11  43 NE5       30.28R WCI  26
SAFFORD        PTCLDY    32  15  49 SE6       30.31R WCI  26
$$

AZZ020-021-025-026-031-071600-
SOUTHWEST ARIZONA

CITY           SKY/WX    TMP DP  RH WIND       PRES   REMARKS
YUMA           PTCLDY    55  23  28 N7        30.20R
$$

CAZ031-033-041-043-047-048-061-071600-
SOUTHERN CALIFORNIA

CITY           SKY/WX    TMP DP  RH WIND       PRES   REMARKS
DOWNTOWN L.A.  CLEAR     52  28  39 N3        30.13R
L.A. AIRPORT   CLEAR     56  26  31 NE6       30.13S
SAN DIEGO      PTCLDY    51  28  41 NW3       30.13R
BURBANK        CLEAR     46  27  47 CALM      30.13R
ONTARIO        PTCLDY    43  28  55 CALM      30.15R
RIVERSIDE      CLEAR     50  25  37 E6        30.17S
PALM SPRINGS   CLEAR     59  21  23 N7        30.24R
EL CENTRO NAS  CLEAR     44  19  36 SW7       30.22R
IMPERIAL       CLEAR     47  21  35 W7        30.20R
BLYTHE         CLEAR     46  24  42 CALM      30.24R
NEEDLES        CLEAR     53  27  36 N8        30.28R
$$

NVZ020-UTZ003-071600-
SOUTHERN NEVADA-UTAH

CITY           SKY/WX    TMP DP  RH WIND       PRES   REMARKS
LAS VEGAS      CLEAR     44  24  45 CALM      30.34R
SALT LAKE CITY MOCLDY    24  18  77 SE7       30.56R WCI  16
$$

NMZ009-TXZ055-071600-
NEW MEXICO-WEST TEXAS

CITY           SKY/WX    TMP DP  RH WIND       PRES   REMARKS
ALBUQUERQUE    CLOUDY    35  16  45 N7        30.38R WCI  29
EL PASO        PTSUNNY   32  11  41 CALM      30.30S
$$


........................KEY........................
SKY/WX - SKY CONDITION/WEATHER
TMP    - TEMPERATURE IN FAHRENHEIT
DP     - DEW POINT IN FAHRENHEIT
RH     - RELATIVE HUMIDITY IN PERCENT
WIND   - DIRECTION AND SPEED IN MILES PER HOUR (MPH)
VRB    - VARIABLE WIND DIRECTION
PRES   - MEAN SEA LEVEL PRESSURE IN INCHES OF MERCURY
         F - FALLING PRESSURE   R - RISING PRESSURE
         S - STEADY PRESSURE
VSB    - VISIBILITY IN MILES
HX     - HEAT INDEX IN FAHRENHEIT
WCI    - WIND CHILL INDEX IN FAHRENHEIT
TC     - TEMPERATURE IN CELSIUS WHICH IS ALSO KNOWN AS
         TEMPERATURE IN CENTIGRADE
AFB    - AIR FORCE BASE
         LUKE AFB IS LUKE AIR FORCE BASE
         DAVIS-MONTHAN IS DAVIS-MONTHAN AIR FORCE BASE
NAS    - NAVAL AIR STATION
         EL CENTRO NAS IS EL CENTRO NAVAL AIR STATION
N/A    - NOT AVAILABLE




USA.gov is the U.S. government's official web portal to all federal, state and local government web resources and services.